DW1996 Weather Reports


Display with metric or nautical units.
time (UTC)temp
F
wind
direction
speed
MPH
gust
MPH
rain 1hr
in
rain 24hr
in
rain mn
in
humidity
%
barometer
mb
20260508200003 85 148 4.0 16.0 0.00 0.09 0.09 78 1006.9
20260508194502 86 154 7.0 13.0 0.00 0.09 0.09 77 1007.0
20260508193059 85 150 6.0 15.0 0.00 0.09 0.09 79 1007.2
20260508191558 84 145 5.0 10.0 0.00 0.09 0.09 81 1007.3
20260508190104 84 57 4.0 10.0 0.00 0.09 0.09 82 1007.5
20260508184555 84 108 4.0 8.0 0.00 0.09 0.09 83 1007.7
20260508183056 84 59 5.0 9.0 0.00 0.09 0.09 82 1008.1
20260508181611 85 94 2.0 6.0 0.01 0.09 0.09 84 1008.2
20260508180107 83 83 2.0 6.0 0.01 0.09 0.09 88 1008.4
20260508174546 82 96 3.0 8.0 0.01 0.09 0.09 89 1008.7
20260508173049 81 101 3.0 8.0 0.01 0.09 0.09 89 1009.1
20260508171542 81 73 7.0 10.0 0.00 0.08 0.08 88 1009.1
20260508170039 81 66 7.0 9.0 0.00 0.08 0.08 88 1009.4
20260508164541 80 51 5.0 6.0 0.00 0.08 0.08 88 1009.5
20260508163033 80 51 5.0 7.0 0.00 0.08 0.08 89 1009.7
20260508161536 80 59 6.0 10.0 0.00 0.08 0.08 89 1009.8
20260508160036 79 42 5.0 9.0 0.00 0.08 0.08 90 1009.8
20260508154527 79 5 3.0 8.0 0.00 0.08 0.08 91 1010.0
20260508153026 78 16 3.0 11.0 0.00 0.08 0.08 91 1010.1
20260508151526 77 25 5.0 11.0 0.00 0.08 0.08 91 1010.1
20260508150024 76 21 6.0 12.0 0.00 0.08 0.08 91 1010.2
20260508144523 76 5 8.0 12.0 0.00 0.08 0.08 91 1010.2
20260508143022 76 5 9.0 12.0 0.00 0.08 0.08 91 1010.4
20260508141525 77 355 6.0 10.0 0.00 0.08 0.08 91 1010.3
20260508140018 77 5 2.0 8.0 0.00 0.08 0.08 91 1010.5
20260508134515 77 327 4.0 10.0 0.00 0.08 0.08 91 1010.4
20260508133020 78 355 1.0 6.0 0.00 0.08 0.08 91 1010.3
20260508131512 78 346 4.0 8.0 0.00 0.08 0.08 90 1010.0
20260508130011 79 288 0.0 0.0 0.00 0.08 0.08 90 1009.9
20260508124509 79 205 0.0 0.0 0.00 0.08 0.08 90 1009.4
20260508123009 79 265 0.0 0.0 0.00 0.08 0.08 90 1009.3
20260508121508 79 265 0.0 0.0 0.00 0.08 0.08 90 1009.1
20260508120008 79 259 0.0 1.0 0.00 0.08 0.08 90 1008.9
20260508114507 79 235 0.0 1.0 0.00 0.08 0.08 91 1008.9
20260508113007 79 244 1.0 9.0 0.00 0.08 0.08 91 1008.8
20260508111511 79 300 1.0 6.0 0.00 0.08 0.08 91 1008.7
20260508110006 79 274 4.0 9.0 0.00 0.08 0.08 91 1009.0
20260508104504 79 279 1.0 11.0 0.00 0.08 0.08 91 1008.9
20260508103009 79 234 3.0 11.0 0.00 0.08 0.08 91 1008.8
20260508101502 79 218 7.0 18.0 0.00 0.08 0.08 91 1006.8
20260508100100 79 167 12.0 23.0 0.00 0.08 0.08 91 1005.9
20260508094612 79 182 11.0 25.0 0.01 0.08 0.08 91 1006.4
20260508093056 79 163 10.0 20.0 0.02 0.08 0.08 91 1007.6
20260508091551 79 176 7.0 17.0 0.04 0.08 0.08 91 1007.7
20260508090152 79 162 5.0 11.0 0.07 0.08 0.08 91 1008.4
20260508084550 79 171 4.0 12.0 0.07 0.07 0.07 91 1007.8
20260508083109 79 132 4.0 10.0 0.06 0.06 0.06 91 1008.5
20260508081544 79 186 4.0 7.0 0.04 0.04 0.04 90 1009.7
20260508080043 79 183 0.0 5.0 0.01 0.01 0.01 90 1010.3
20260508074540 79 161 0.0 0.0 0.00 0.00 0.00 90 1010.4
20260508073039 79 185 0.0 0.0 0.00 0.00 0.00 90 1010.7
20260508071538 79 199 0.0 0.0 0.00 0.00 0.00 90 1010.9
20260508070037 79 199 0.0 4.0 0.00 0.00 0.00 90 1011.3
20260508064546 79 87 0.0 4.0 0.00 0.00 0.00 90 1010.9
20260508063035 79 114 0.0 8.0 0.00 0.00 0.00 90 1010.8
20260508061535 79 92 1.0 7.0 0.00 0.00 0.00 90 1010.7
20260508060032 79 94 6.0 13.0 0.00 0.00 0.00 90 1010.6
20260508054534 79 74 2.0 14.0 0.00 0.00 0.00 90 1011.1
20260508053033 79 88 11.0 17.0 0.00 0.00 0.00 90 1010.6
20260508051526 79 64 15.0 19.0 0.00 0.00 0.00 90 1010.6
20260508050025 79 71 16.0 19.0 0.00 0.00 0.00 90 1011.0
20260508044521 79 54 16.0 20.0 0.00 0.00 0.00 90 1011.1
20260508043020 79 55 15.0 19.0 0.00 0.00 0.00 89 1011.1
20260508041519 79 62 14.0 19.0 0.00 0.00 0.00 89 1011.2
20260508040023 79 57 18.0 23.0 0.00 0.00 0.00 89 1010.5
20260508034516 79 63 16.0 21.0 0.00 0.00 0.00 90 1010.9
20260508033016 79 32 14.0 19.0 0.00 0.00 0.00 90 1011.0
20260508031516 79 38 15.0 22.0 0.00 0.00 0.00 90 1010.5
20260508030015 79 37 15.0 20.0 0.00 0.00 0.00 89 1010.8
20260508024510 80 39 15.0 20.0 0.00 0.00 0.00 89 1010.4
20260508023022 80 56 15.0 19.0 0.00 0.00 0.00 89 1010.4
20260508021511 80 53 16.0 20.0 0.00 0.00 0.00 89 1010.1
20260508020007 80 51 17.0 20.0 0.00 0.00 0.00 89 1010.0
20260508014517 80 46 16.0 20.0 0.00 0.00 0.00 89 1010.0
20260508013004 80 52 16.0 21.0 0.00 0.00 0.00 89 1009.8
20260508011501 80 49 16.0 19.0 0.00 0.00 0.00 89 1009.6
20260508004601 80 30 11.0 15.0 0.00 0.00 0.00 89 1009.6
20260508003108 80 37 13.0 16.0 0.00 0.00 0.00 89 1009.2
20260508001600 80 49 13.0 18.0 0.00 0.00 0.00 89 1009.0
20260508000101 80 38 13.0 18.0 0.00 0.00 0.00 89 1008.9
20260507234557 80 25 14.0 17.0 0.00 0.00 0.00 88 1008.8
20260507233057 81 32 14.0 18.0 0.00 0.00 0.00 88 1008.7
20260507231556 81 49 13.0 16.0 0.00 0.00 0.00 88 1008.8
20260507230058 81 36 12.0 16.0 0.00 0.00 0.00 88 1008.8
20260507224614 81 40 12.0 17.0 0.00 0.00 0.00 88 1008.8
20260507223058 81 44 12.0 17.0 0.00 0.00 0.00 87 1008.9
20260507221553 81 49 14.0 18.0 0.00 0.00 0.00 87 1008.9
20260507220053 82 51 11.0 15.0 0.00 0.00 0.00 87 1009.0
20260507214554 81 40 13.0 17.0 0.00 0.00 0.00 87 1008.9
20260507213053 81 43 13.0 19.0 0.00 0.00 0.00 87 1009.0
20260507211611 81 52 17.0 20.0 0.00 0.00 0.00 87 1008.9
20260507210053 81 49 15.0 20.0 0.00 0.00 0.00 87 1009.2
20260507204559 81 45 17.0 21.0 0.00 0.00 0.00 87 1009.4
20260507203050 81 36 15.0 20.0 0.00 0.00 0.00 87 1009.8
20260507201604 81 31 17.0 21.0 0.00 0.00 0.00 86 1009.9